User: anonymous   Login
Location: Unspecified
(0.0000°N, 0.0000°E)
Time: 21:54:57
(UTC+00:00)
Language:

STARLINK-34633 - Orbit

View from above orbital plane
View from above orbital plane
View from above satellite
View from above satellite

Ground track
Ground track

The orbit is defined by the following mean orbital elements,

1 64804U          26145.44033751 +.00000000 +00000-0 +18991-3 0 00001
2 64804  70.0006 300.9208 0002732 267.5169  92.5677 14.98336318    01
Epoch (UTC): 25 May 2026 10:34:05
Eccentricity: 0.0002732
inclination: 70.0006°
perigee height: 570 km
apogee height: 574 km
right ascension of ascending node: 300.9208°
argument of perigee: 267.5169°
revolutions per day: 14.98336318
mean anomaly at epoch: 92.5677°

The dashed part of the orbit path shows where the satellite is in the earth's shadow,  

DLR